{"data":{"norad_id":58122,"intl_designator":"2023-162E","name":"STARLINK-30759","alt_names":[],"object_type":"PAYLOAD","status":"ACTIVE","operator":null,"country":"US","launch_date":"2023-10-22","launch_site_code":"AFETR","launch_vehicle":null,"mission":null,"orbit_class":"UNKNOWN","rcs_meters":null,"size_class":null,"mass_kg":null,"dimensions":null,"purposes":["comms"],"wikipedia_slug":null,"has_3d_model":false,"image_url":null,"decayed_at":null,"tle_current":{"epoch":"2026-05-25T03:43:48.979200Z","epoch_age_seconds":54987,"freshness":"FRESH","line1":"1 58122U 23162E   26145.15542800  .00000386  00000+0  23574-4 0  9996","line2":"2 58122  43.0068  60.4789 0001473 268.2699  91.7984 15.27576688144015","mean_motion":15.27576688,"eccentricity":0.0001473,"inclination_deg":43.0068,"raan_deg":60.4789,"arg_perigee_deg":268.2699,"mean_anomaly_deg":91.7984,"bstar":2.3574e-5,"rev_number":14401,"period_min":94.266953097153,"perigee_km":482.04835920429,"apogee_km":484.06966754983,"semimajor_km":6861.1960133771,"source":"CELESTRAK","updated_at":"2026-05-25T13:38:18.531416Z"}}}